This is the latest recevied weather packets stored in our database for station/object W4EDL-13. If no packets are shown the sender has not sent any weather packets the latest 10 day(s).
| Time | Temp. | Humidity | Pressure | Rain* | Wind** | Luminosity | Snow |
|---|---|---|---|---|---|---|---|
| 1777919867 | 27.22° C | 49% | 1008.3 hPa | - | - | - | - |
| 1777919267 | 27.78° C | 47% | 1008 hPa | - | - | - | - |
| 1777918666 | 27.22° C | 50% | 1008.3 hPa | - | - | - | - |
| 1777918065 | 27.78° C | 48% | 1008 hPa | - | - | - | - |
| 1777917465 | 27.78° C | 47% | 1008.3 hPa | - | - | - | - |
| 1777916864 | 27.78° C | 49% | 1008.3 hPa | - | - | - | - |
| 1777916864 | 27.78° C | 49% | 1008.3 hPa | - | - | - | - |
| 1777916263 | 27.78° C | 48% | 1008.3 hPa | - | - | - | - |
| 1777915662 | 28.33° C | 48% | 1008.3 hPa | - | - | - | - |
| 1777915062 | 29.44° C | 45% | 1008.3 hPa | - | - | - | - |
| 1777914461 | 27.22° C | 49% | 1008.3 hPa | - | - | - | - |
| 1777913860 | 26.67° C | 51% | 1008.6 hPa | - | - | - | - |
| 1777913260 | 27.22° C | 49% | 1008.6 hPa | - | - | - | - |
| 1777912659 | 26.67° C | 52% | 1008.6 hPa | - | - | - | - |
| 1777912059 | 26.67° C | 50% | 1008.6 hPa | - | - | - | - |
| 1777911458 | 26.67° C | 52% | 1008.6 hPa | - | - | - | - |
| 1777910858 | 25.56° C | 54% | 1008.6 hPa | - | - | - | - |
| 1777910857 | 25.56° C | 54% | 1008.6 hPa | - | - | - | - |
| 1777910257 | 26.67° C | 50% | 1008.6 hPa | - | - | - | - |
| 1777909657 | 27.22° C | 49% | 1008.6 hPa | - | - | - | - |
| 1777909656 | 27.22° C | 49% | 1008.6 hPa | - | - | - | - |
| 1777909057 | 27.78° C | 50% | 1008.6 hPa | - | - | - | - |
| 1777909055 | 27.78° C | 50% | 1008.6 hPa | - | - | - | - |
| 1777908456 | 26.11° C | 53% | 1008.6 hPa | - | - | - | - |
| 1777908455 | 26.11° C | 53% | 1008.6 hPa | - | - | - | - |
* Rain since midnight (hover to see other rain measurements)
** Current wind speed in m/s (hover to see current wind gust speed)